Regional Weather Roundup
Issued by NWS San Diego, CA

Home | Current Version | Previous Version | Text Only | Print | Product List | Glossary On
Versions: 1 2 3 4 5 6 7 8 9 10 11 12 13 14 15 16 17 18 19 20 21 22 23 24 25 26 27 28 29 30 31 32 33 34 35 36 37 38 39 40 41 42 43 44 45 46 47 48 49 50
000
ASUS46 KSGX 262011
RWRSGX

SAN DIEGO HOURLY WEATHER ROUNDUP
NATIONAL WEATHER SERVICE SAN DIEGO CA
100 PM PDT WED APR 26 2017

NOTE: "FAIR" INDICATES FEW OR NO CLOUDS BELOW 12,000 FEET WITH NO
SIGNIFICANT WEATHER AND/OR OBSTRUCTIONS TO VISIBILITY.

CAZ042-043-060-061-PZZ750-775-262100-

GREATER SAN DIEGO AREA

CITY           SKY/WX    TMP DP  RH WIND       PRES   REMARKS
SAN DIEGO AP   MOSUNNY   70  51  51 SW7       29.94S
NATIONAL CITY    N/A     69  58  66 SW6       29.93S
CHULA VISTA      N/A     71  58  63 W3        29.85S
IMPERIAL BEACH MOSUNNY   69  56  62 SW10      29.94S
BROWN FIELD    SUNNY     74  48  39 W8        29.92F
MIRAMAR MCAS   MOSUNNY   77  50  38 SW9       29.91S
MONTGOMERY FLD SUNNY     72  50  45 SW8       29.92S

$$

NORTH SAN DIEGO COUNTY

CITY           SKY/WX    TMP DP  RH WIND       PRES   REMARKS
CAMP PENDLETON MOSUNNY   71  54  54 SW10      29.91F
OCEANSIDE AP   SUNNY     73  56  54 SW10      29.90F
OCEANSIDE HBR    N/A     65  59  79 SW3       29.94F
VISTA            N/A     71  55  57 W7        29.88F
CARLSBAD       SUNNY     68  55  63 W13       29.91F
DEL MAR          N/A     67  60  78 SW5       29.94F
LA JOLLA SCRIP   N/A     64  60  86 SW6       29.92F
FALLBROOK        N/A     76  55  48 SW7       29.88S
ESCONDIDO        N/A     78  56  45 SW3       29.91F
SAN MARCOS       N/A     70  55  57 W9        29.92F
POWAY            N/A     78  55  44 W6        29.92F

$$

EAST SAN DIEGO COUNTY

CITY           SKY/WX    TMP DP  RH WIND       PRES   REMARKS
RAMONA         SUNNY     76  50  40 W13       29.91F
SANTEE LAKES     N/A     76  57  51 SW12      29.89F
LA MESA          N/A     72  54  52 W8        29.85S
JAMUL            N/A     75  56  51 CALM      29.91F
DESCANSO N       N/A     69  46  43 SW6       29.88F
MT. LAGUNA OBS   N/A     64  38  39 W13       29.63F
CAMPO            N/A     74  45  35 SW15      29.89F

$$

ORANGE COUNTY AND THE LOS ANGELES BASIN

CITY           SKY/WX    TMP DP  RH WIND       PRES   REMARKS
JOHN WAYNE AP  MOSUNNY   71  57  61 S13G22    29.90F
LAGUNA BEACH     N/A     69  59  70 S3        29.86F
LAKE FOREST FR   N/A     77  50  37 CALM      29.79F
HUNTINGTON BCH   N/A     68  60  74 SW6       29.92F
LOS ALAMITOS   MOSUNNY   72  54  53 S15       29.88F
FULLERTON      SUNNY     76  53  44 SW5       29.87F
LONG BEACH     SUNNY     69  49  48 S10       29.88F
L.A. AP        PTSUNNY   70  52  52 SW14      29.88F
L.A. DOWNTOWN  MOSUNNY   77  48  35 CALM      29.86F

$$

THE INLAND EMPIRE

CITY           SKY/WX    TMP DP  RH WIND       PRES   REMARKS
CORONA         SUNNY     78  51  38 W7G17     29.88F
CHINO          PTSUNNY   80  49  33 W10       29.89F
ONTARIO        PTSUNNY   77  45  32 W12       29.88F
RIVERSIDE AP   MOSUNNY   78  45  30 VRB6G16   29.88F
MORENO VALLEY    N/A     78  50  36 W5        28.03F
MARCH ARB      MOSUNNY   80  42  25 W9        29.89F
HORSETHIEF CYN   N/A     78  41  27 E3        29.88F
PERRIS           N/A     80  47  31 W7        29.88F
HEMET EAST       N/A     76  38  24 SW3       29.95S
FRENCH VALLEY  FAIR      77  48  36 S10G16    29.90F
TEMECULA         N/A     75  53  45 SW9       29.95S

$$

SAN BERNARDINO AND RIVERSIDE COUNTY MOUNTAINS

CITY           SKY/WX    TMP DP  RH WIND       PRES   REMARKS
BIG BEAR AP    MOSUNNY   59  34  38 SW9G18    30.08S
ANGELUS OAKS     N/A     66  41  40 CALM      29.82F
PINE COVE        N/A     62  41  46 W7        29.87F

$$

SOUTHERN DESERT INCLUDING THE COACHELLA VALLEY

CITY           SKY/WX    TMP DP  RH WIND       PRES   REMARKS
PALM SPRINGS   SUNNY     89  36  15 VRB7      29.80F
PALM DESERT      N/A     90  41  18 E1        29.69F
THERMAL        MOSUNNY   88  35  15 SE8       29.76F
BLYTHE         SUNNY     87  25  10 VRB3      29.79F
IMPERIAL AP    PTSUNNY   87  42  20 E8        29.78F
EL CENTRO NAS  PTSUNNY   86  38  18 SE7       29.80F
YUMA AZ        PTSUNNY   87  32  14 VRB3      29.80
MEXICALI       PTSUNNY   88  32  13 S8        29.79F

$$

UPPER DESERT

CITY           SKY/WX    TMP DP  RH WIND       PRES   REMARKS
VICTORVILLE AP MOSUNNY   73  37  27 W22G29    29.93F
HESPERIA         N/A     73  44  35 NW6       30.00F
PALMDALE       CLOUDY    71  42  35 W25G36    29.95F
LANCASTER      PTSUNNY   70  40  33 W32G45    29.93F
EDWARDS AFB    PTSUNNY   75  41  29 W23G32    29.85F
DAGGETT        MOSUNNY   80  39  23 W21G29    29.85F
29 PALMS N     MOSUNNY   81  32  17 NW9G20    29.92F
NEEDLES        SUNNY     87  21   9 CALM      29.79F

$$

REGIONAL REPORTS

CITY           SKY/WX    TMP DP  RH WIND       PRES   REMARKS
SANTA BARBARA  SUNNY     74  53  48 W16G23    29.87F
SANDBERG       MOSUNNY   60  43  53 VRB7G21   30.07F
LAS VEGAS NV   PTSUNNY   79  22  12 E8        29.79F
PHOENIX AZ     PTSUNNY   83  20   9 W9        29.81F
TIJUANA        MOSUNNY   72  45  37 W7        29.93F
ENSENADA NW      N/A     66  32  28 S2        29.91F

$$

OFFSHORE ISLANDS

CITY           SKY/WX    TMP DP  RH WIND       PRES   REMARKS
CATALINA ARPT  SUNNY     71  46  40 VRB6      29.94F
SAN CLEMENTE I MOSUNNY   66  53  63 W12       29.95F
SAN NICOLAS IS MOSUNNY   65  54  67 W39G48    29.92F

$$

MARINE AND OFFSHORE BUOY REPORTS

STATION/POSITION SKY/WX   TEMP    WIND        PRES    VSBY  SWELL
                          AIR SEA DIR/SP/G                  HT/PER/DIR
                          (F)     (DEG/KT/KT) (MB)    (MI)  (FT/S/D)
TANNER BANKS               57 57  310/ 21/ 25 1013.9F         3/ 10/16
S CLEMENTE BASIN           61 63  280/ 12/ 14 1013.7R         7/280/ 8
SAN NICOLAS IS.               55                N/A           3/180/15
SO. S. ROSA ISLA           55 53  300/ 23/ 27 1014.6F         3/290/10
W. S. BARBARA CH           54 51  320/ 21/ 25 1015.6S         3/300/ 9
M. S. BARBARA CH                  270/ 21/ 25 1012.8F
S. MONICA BASIN            60 62  310/  2/  4 1012.5F         7/260/ 6
S PEDRO CHANNEL               60                N/A           2/270/11
CMP PENDLETON NS              64                N/A           3/210/17
OCEANSIDE OFFSHR              64                N/A           3/190/17
TORREY PINES OTR              65                N/A           3/190/17
POINT LOMA SOUTH              63                N/A           3/170/17

$$




USA.gov is the U.S. government's official web portal to all federal, state and local government web resources and services.